[[{"header":{"parameterUnit":"m.s-1","parameterCategory":1,"la1":30.2991,"la2":30.254,"lo1":-89.0895,"lo2":-89.0444,"dy":0.0017,"dx":0.0017,"nx":28,"ny":28,"refTime":"2025-03-20T09:00:00:Z","depth":0,"parameterNumber":2,"parameterNumberName":"U-component_of_WINDS"},"data":[0,0,0,0,0,0,0,0,0,0,0,0,0,0,0,0,0,0,0,0,0,0,0,0,0,0,0,0,0,0,0,0,0,0,0,0,0,0,0,0,0,0,0,0,0,0,0,0,0,0,0,0,0,0,0,0,0,0,1.2982,1.2983,0,1.3094,1.3096,1.3097,1.3123,1.3123,1.3122,1.3121,1.3235,1.3238,1.3242,0,0,0,0,0,0,0,0,0,0,0,0,0,1.2787,1.279,1.2982,1.2983,1.2985,1.3094,1.3096,1.3097,1.3123,1.3123,1.3122,1.3121,1.3233,1.3238,1.3242,0,0,0,0,0,0,0,0,0,0,0,0,0,1.2883,1.2791,1.2981,1.3011,1.3015,1.3094,1.3096,1.3098,1.3124,1.3122,1.3121,1.312,1.3232,1.3237,1.3243,1.33,0,0,1.326,1.3262,0,0,0,0,0,0,0,0,1.2877,1.289,1.3005,1.3009,1.3013,1.3094,1.3069,1.3166,1.3124,1.3082,1.3121,1.312,1.3189,1.3198,1.3221,1.3306,1.331,1.326,1.3264,1.3266,1.3268,0,0,0,0,0,0,0,1.287,1.2885,1.3026,1.3007,1.3012,1.3018,1.303,1.3087,1.314,1.3086,1.3088,1.3101,1.3191,1.3216,1.3224,1.3312,1.326,1.3265,1.3269,1.3271,1.3448,1.3449,0,0,0,0,0,0,1.2859,1.2879,1.3023,1.303,1.2941,1.3022,1.3036,1.3069,1.314,1.315,1.3102,1.3102,1.3207,1.3217,1.3228,1.3299,1.3266,1.3272,1.3275,1.3446,1.3448,1.3449,0,0,0,0,0,0,1.2855,1.2872,1.3018,1.2955,1.2974,1.3027,1.3064,1.3072,1.3097,1.3152,1.3161,1.3118,1.3206,1.322,1.3282,1.3303,1.3274,1.3279,1.3445,1.3447,1.3449,1.3442,0,0,0,0,0,0,1.2849,1.287,1.2893,1.2955,1.2978,1.3071,1.3065,1.3075,1.3107,1.3108,1.317,1.3179,1.3206,1.3273,1.3287,1.331,1.3283,1.3443,1.3446,1.3448,1.344,1.3443,1.3446,0,0,0,0,0,1.2842,1.2886,1.2894,1.2911,1.3007,1.3072,1.3084,1.3116,1.3109,1.3131,1.3167,1.3177,1.3299,1.328,1.3296,1.3321,1.3442,1.3445,1.3448,1.3439,1.3442,1.3445,0,0,0,0,0,0,1.2824,1.2895,1.2904,1.297,1.3015,1.3076,1.3106,1.3119,1.3166,1.3165,1.3202,1.3215,1.3274,1.3304,1.3281,1.3379,1.337,1.3376,1.3358,1.3362,1.3364,1.3355,1.3288,0,0,0,0,0,1.2828,1.2875,1.2934,1.2987,1.3009,1.3054,1.3083,1.3103,1.3151,1.317,1.3209,1.3254,1.3303,1.3334,1.3382,1.3445,1.3458,1.347,1.3472,1.3474,1.3479,1.3513,1.3519,1.3459,1.3459,1.3459,0,0,1.2836,1.2881,1.2908,1.2984,1.3021,1.3068,1.3069,1.3119,1.3154,1.3177,1.3238,1.3268,1.3321,1.3383,1.3412,1.3409,1.3498,1.3478,1.3479,1.3483,1.3517,1.3522,1.3527,1.3461,1.3461,1.3461,0,0,1.2875,1.2914,1.2962,1.2999,1.3055,1.3084,1.3096,1.3155,1.3176,1.3238,1.3255,1.3297,1.338,1.3417,1.3446,1.3498,1.3508,1.3512,1.3526,1.3559,1.3564,1.3568,1.3585,1.3591,1.3517,1.3517,1.3517,0,1.2878,1.2951,1.2984,1.3034,1.3066,1.3089,1.3137,1.3171,1.3239,1.326,1.3256,1.336,1.3397,1.3468,1.348,1.3504,1.3517,1.3505,1.3561,1.3565,1.357,1.3587,1.3593,1.3517,1.3517,1.3517,1.3517,0,1.2951,1.3001,1.3032,1.3098,1.3134,1.3182,1.3222,1.3254,1.3271,1.3301,1.3362,1.3407,1.3464,1.3483,1.35,1.3555,1.3551,1.3553,1.3545,1.3575,1.3591,1.3598,1.3517,1.3517,1.3517,1.3517,0,0,1.2982,1.3066,1.3076,1.3106,1.3169,1.3208,1.3257,1.3313,1.3339,1.3385,1.3426,1.3495,1.3497,1.353,1.3552,1.3581,1.3617,1.3579,1.3581,1.3584,1.368,1.3677,1.3684,1.3625,1.3626,1.3627,1.3675,0,1.3028,1.3116,1.3147,1.322,1.3265,1.3288,1.333,1.3372,1.3401,1.3443,1.3475,1.3523,1.3523,1.3543,1.3572,1.3606,1.3637,1.3604,1.3662,1.3664,1.3647,1.3693,1.369,1.3733,1.3681,1.3683,1.3683,0,1.3093,1.3141,1.3218,1.3274,1.3295,1.3332,1.3385,1.3426,1.3474,1.3493,1.3529,1.3549,1.3599,1.3588,1.3657,1.3634,1.366,1.368,1.3682,1.3688,1.3675,1.3699,1.3747,1.3753,1.3694,1.3693,1.3692,0,1.3106,1.319,1.3246,1.3271,1.3339,1.3364,1.3394,1.3441,1.3472,1.3518,1.3539,1.359,1.3618,1.3657,1.3689,1.3678,1.3755,1.3747,1.3771,1.377,1.3785,1.3784,1.3837,1.3803,1.3803,1.3803,1.3803,0,1.3154,1.32,1.3253,1.3287,1.3339,1.3374,1.3424,1.3454,1.3496,1.3536,1.3559,1.3596,1.3636,1.3678,1.3704,1.3756,1.3769,1.3785,1.3791,1.3782,1.378,1.3799,1.3797,1.3805,1.3804,1.3804,1.3804,0,1.3177,1.3215,1.3278,1.3337,1.3353,1.3388,1.3438,1.3472,1.3501,1.3552,1.3565,1.3611,1.3662,1.3698,1.3763,1.378,1.3836,1.3843,1.382,1.3823,1.3844,1.3841,1.3911,1.3922,1.3881,1.3882,1.3882,0,1.3204,1.324,1.3303,1.3332,1.3361,1.3407,1.3439,1.3475,1.3507,1.3564,1.3591,1.3643,1.3687,1.3766,1.3805,1.3854,1.3861,1.3882,1.3869,1.3859,1.386,1.3857,1.3861,1.3884,1.3884,1.3885,1.3885,0,1.3248,1.3265,1.3311,1.3363,1.34,1.3443,1.3485,1.3507,1.355,1.3585,1.3637,1.3671,1.3737,1.3788,1.3841,1.3871,1.3884,1.3889,1.3897,1.3888,1.3873,1.388,1.3824,1.3887,1.3887,1.3886,1.3886,1.3886,1.3274,1.3306,1.3355,1.3405,1.3441,1.348,1.3515,1.3549,1.3593,1.365,1.3668,1.3722,1.3768,1.3841,1.3871,1.3913,1.3911,1.3923,1.3926,1.3928,1.3927,1.3867,1.3922,1.3922,1.3922,1.3922,1.3922,0,1.3318,1.3351,1.3396,1.3455,1.3494,1.3505,1.3552,1.3583,1.3631,1.3673,1.3716,1.3775,1.3824,1.3866,1.3917,1.3943,1.395,1.3955,1.3953,1.3959,1.3926,1.3913,1.3948,1.3948,1.3948,1.3948,1.3948,1.3948,1.3345,1.3401,1.3423,1.3496,1.3528,1.3581,1.3607,1.3643,1.3677,1.3742,1.3783,1.3811,1.3853,1.3907,1.3953,1.3964,1.3981,1.3984,1.3996,1.3964,1.3961,1.3958,1.3947,1.3987,1.3987,1.4026,1.4026,1.4026]},{"header":{"parameterUnit":"m.s-1","parameterCategory":1,"la1":30.2991,"la2":30.254,"lo1":-89.0895,"lo2":-89.0444,"dy":0.0017,"dx":0.0017,"nx":28,"ny":28,"refTime":"2025-03-20T09:00:00:Z","depth":0,"parameterNumber":3,"parameterNumberName":"V-component_of_WINDS"},"data":[0,0,0,0,0,0,0,0,0,0,0,0,0,0,0,0,0,0,0,0,0,0,0,0,0,0,0,0,0,0,0,0,0,0,0,0,0,0,0,0,0,0,0,0,0,0,0,0,0,0,0,0,0,0,0,0,0,0,3.5269,3.5269,0,3.5248,3.5248,3.5248,3.5208,3.5207,3.5206,3.5206,3.5185,3.5185,3.5186,0,0,0,0,0,0,0,0,0,0,0,0,0,3.5276,3.5276,3.5269,3.5269,3.5269,3.5249,3.5248,3.5248,3.5208,3.5207,3.5206,3.5205,3.5185,3.5185,3.5186,0,0,0,0,0,0,0,0,0,0,0,0,0,3.5266,3.5276,3.5269,3.5246,3.5244,3.5249,3.5248,3.5248,3.5208,3.5207,3.5206,3.5205,3.5185,3.5185,3.5186,3.5211,0,0,3.5187,3.5187,0,0,0,0,0,0,0,0,3.5266,3.5266,3.525,3.5248,3.5246,3.523,3.5243,3.5236,3.5209,3.5222,3.5206,3.5204,3.5201,3.52,3.5199,3.521,3.5209,3.5187,3.5187,3.5187,3.5187,0,0,0,0,0,0,0,3.5267,3.5266,3.5261,3.525,3.5247,3.5238,3.5235,3.5241,3.5218,3.5221,3.5218,3.5216,3.52,3.5198,3.5198,3.5209,3.5187,3.5187,3.5187,3.5187,3.5239,3.524,0,0,0,0,0,0,3.5271,3.5267,3.5262,3.526,3.5253,3.5238,3.5235,3.5236,3.5218,3.5214,3.5217,3.5214,3.5199,3.5198,3.5197,3.5225,3.5187,3.5187,3.5187,3.5238,3.524,3.5241,0,0,0,0,0,0,3.5271,3.5271,3.5263,3.5263,3.5261,3.524,3.5241,3.5236,3.5235,3.5215,3.5211,3.522,3.5198,3.5197,3.5208,3.5223,3.5187,3.5188,3.5237,3.5239,3.524,3.5281,0,0,0,0,0,0,3.5272,3.5271,3.528,3.5263,3.5261,3.5273,3.5242,3.5237,3.5235,3.5232,3.5217,3.5213,3.5197,3.5207,3.5208,3.5223,3.5188,3.5235,3.5238,3.524,3.5278,3.5284,3.5289,0,0,0,0,0,3.5272,3.5293,3.5281,3.5281,3.5272,3.5274,3.5273,3.5253,3.5237,3.5246,3.5233,3.5214,3.5222,3.5209,3.5209,3.5225,3.5234,3.5237,3.5239,3.5275,3.5283,3.5289,0,0,0,0,0,0,3.5312,3.529,3.5277,3.5293,3.5286,3.5268,3.5278,3.5261,3.5259,3.5255,3.5231,3.5228,3.5242,3.5235,3.5221,3.5248,3.5225,3.5228,3.5252,3.5259,3.5264,3.5265,3.5188,0,0,0,0,0,3.5323,3.5327,3.5307,3.5323,3.532,3.53,3.53,3.5286,3.5277,3.5274,3.5262,3.5255,3.5256,3.5257,3.5257,3.5277,3.5273,3.5288,3.5293,3.5298,3.53,3.531,3.5316,3.525,3.525,3.525,0,0,3.5345,3.5334,3.5337,3.5331,3.5324,3.5328,3.5298,3.5304,3.5306,3.5275,3.5284,3.5276,3.5266,3.5282,3.5288,3.5276,3.5318,3.5301,3.5305,3.5305,3.5313,3.532,3.5325,3.5252,3.5251,3.5251,0,0,3.5388,3.538,3.5392,3.5385,3.5374,3.5361,3.5364,3.5348,3.5341,3.535,3.5327,3.533,3.5332,3.5326,3.5324,3.5364,3.5346,3.5365,3.5393,3.5403,3.5408,3.5412,3.5426,3.5432,3.5368,3.5368,3.5368,0,3.5417,3.5422,3.54,3.5407,3.5405,3.5377,3.5389,3.5384,3.5374,3.5373,3.536,3.5362,3.5353,3.5367,3.5377,3.5376,3.5378,3.5366,3.5409,3.5413,3.5417,3.543,3.5435,3.537,3.537,3.537,3.537,0,3.5457,3.5461,3.5473,3.5463,3.5462,3.5472,3.5452,3.5454,3.544,3.5428,3.5437,3.5427,3.5423,3.5426,3.5412,3.5437,3.543,3.5413,3.5389,3.5426,3.5438,3.5442,3.5374,3.5373,3.5372,3.5372,0,0,3.5524,3.5503,3.5507,3.5502,3.5489,3.5491,3.55,3.5497,3.5499,3.5493,3.5499,3.5502,3.5486,3.5483,3.5469,3.5477,3.5509,3.5459,3.5459,3.5468,3.5536,3.5548,3.5554,3.5498,3.5499,3.5499,3.5536,0,3.5562,3.5575,3.5556,3.5573,3.5576,3.555,3.5558,3.555,3.554,3.5541,3.5529,3.5531,3.5511,3.5509,3.5516,3.5504,3.5522,3.5501,3.5503,3.5503,3.5505,3.556,3.5573,3.5608,3.5541,3.5542,3.5542,0,3.5609,3.5605,3.5622,3.5608,3.5608,3.5615,3.561,3.5612,3.5604,3.5595,3.5592,3.5575,3.5582,3.556,3.557,3.5556,3.5555,3.555,3.555,3.5549,3.5524,3.5559,3.5619,3.5624,3.5549,3.5549,3.5548,0,3.5654,3.5654,3.5664,3.5661,3.5644,3.565,3.5643,3.5633,3.5632,3.5629,3.5628,3.5625,3.5624,3.5622,3.5604,3.559,3.5616,3.5593,3.5609,3.561,3.5615,3.5615,3.5675,3.5617,3.5617,3.5617,3.5616,0,3.5699,3.571,3.5684,3.569,3.5702,3.5681,3.5694,3.5684,3.5676,3.568,3.5658,3.5662,3.5639,3.5641,3.5627,3.5637,3.5637,3.563,3.5626,3.5631,3.5632,3.563,3.5627,3.5618,3.5618,3.5617,3.5617,0,3.5751,3.5734,3.5743,3.5727,3.5723,3.5733,3.5718,3.5724,3.5712,3.5717,3.5717,3.5699,3.57,3.5682,3.568,3.5671,3.5686,3.5679,3.5689,3.5686,3.5703,3.5702,3.5763,3.577,3.5709,3.571,3.571,0,3.578,3.5788,3.5772,3.5773,3.5768,3.577,3.5769,3.5748,3.5748,3.5739,3.5745,3.5745,3.5743,3.5746,3.5732,3.573,3.5721,3.5743,3.5721,3.5726,3.5721,3.572,3.572,3.5748,3.5748,3.5749,3.575,0,3.5833,3.5824,3.5823,3.582,3.5819,3.5815,3.581,3.5812,3.579,3.5791,3.5792,3.5791,3.5788,3.5788,3.5783,3.5776,3.5759,3.5757,3.576,3.5765,3.5771,3.5767,3.5701,3.5755,3.5755,3.5754,3.5754,3.5754,3.5873,3.5879,3.5869,3.5869,3.5863,3.5859,3.5863,3.5851,3.5851,3.5848,3.5836,3.5839,3.583,3.5822,3.5817,3.5819,3.5808,3.5813,3.5815,3.5816,3.5819,3.5771,3.5818,3.5818,3.5818,3.5818,3.5817,0,3.5924,3.5916,3.5917,3.591,3.591,3.5894,3.5888,3.5889,3.5891,3.5885,3.5883,3.5884,3.5883,3.587,3.5868,3.5872,3.5864,3.5872,3.5871,3.5869,3.5829,3.5826,3.5878,3.5878,3.5878,3.5878,3.5878,3.5878,3.595,3.5959,3.5949,3.5955,3.5947,3.595,3.5947,3.5943,3.5938,3.594,3.5939,3.593,3.5921,3.5917,3.5916,3.5912,3.5912,3.5923,3.5916,3.5878,3.5872,3.5867,3.5863,3.5923,3.5923,3.5956,3.5956,3.5957]}]]